Location: Igri�s
(42.2144°N, 0.4320°W)
Time: 08:32:03
(UTC+00:00)

X-37B - Pass Details

Date: 13 August 2020
Orbit: 386 x 387 km, 45.0° (Epoch: 18 September)

Event Time Altitude Azimuth Distance (km) Brightness Sun altitude
Rises 20:44:35 0° 283° (WNW) 2,265 5.6 -16.9°
Reaches altitude 10° 20:46:42 10° 288° (WNW) 1,410 4.5 -17.2°
Maximum altitude 20:49:48 51° 6° (N) 495 1.2 -17.6°
Enters shadow 20:50:44 36° 59° (ENE) 636 1.4 -17.8°
